QPF
0.04 0.05 0.04 0.03 0.03 0.02 0.02 0.02 0.03 0.03 0.02 0.02 0.01 0.01 0.01 0.01 0.01 0.01 0.01 0.02 0.03 0.02 0.02 0.02 0.03 0.04 0.04 0.05 0.06 0.07 0.07 0.08 0.07 0.06 0.05 0.04 0.04 0.05
0.05 0.05 0.05 0.04 0.04 0.04 0.04 0.03 0.03 0.04 0.04 0.03 0.02 0.01 0.01 0.01 0.01 0.01 0.01 0.02 0.02 0.02 0.02 0.02 0.02 0.03 0.03 0.04 0.04 0.05 0.05 0.05 0.05 0.05 0.05 0.04 0.03 0.04
0.07 0.07 0.07 0.06 0.05 0.04 0.03 0.03 0.03 0.03 0.03 0.03 0.03 0.02 0.01 0.01 0.01 0.02 0.02 0.01 0.01 0.02 0.02 0.02 0.02 0.02 0.02 0.03 0.04 0.04 0.04 0.04 0.04 0.04 0.04 0.05 0.04 0.03
0.07 0.08 0.08 0.06 0.05 0.04 0.03 0.02 0.03 0.03 0.02 0.03 0.03 0.03 0.02 0.01 0.02 0.02 0.02 0.02 0.02 0.02 0.02 0.01 0.01 0.01 0.01 0.02 0.03 0.03 0.03 0.03 0.03 0.03 0.03 0.04 0.04 0.04
0.06 0.06 0.05 0.05 0.04 0.03 0.02 0.02 0.02 0.03 0.03 0.03 0.04 0.04 0.04 0.03 0.02 0.02 0.02 0.02 0.02 0.02 0.02 0.02 0.02 0.01 0.01 0.01 0.02 0.03 0.03 0.03 0.02 0.02 0.02 0.02 0.03 0.04
0.03 0.04 0.05 0.04 0.04 0.04 0.03 0.02 0.03 0.04 0.04 0.05 0.05 0.05 0.06 0.04 0.03 0.02 0.02 0.02 0.02 0.02 0.02 0.02 0.02 0.01 0.01 0.01 0.01 0.02 0.03 0.02 0.02 0.02 0.01 0.02 0.02 0.02
0.01 0.01 0.02 0.04 0.04 0.05 0.05 0.04 0.04 0.05 0.05 0.05 0.05 0.06 0.07 0.06 0.04 0.04 0.03 0.03 0.03 0.02 0.02 0.02 0.02 0.01 0.01 0.01 0.01 0.02 0.02 0.02 0.02 0.01 0.01 0.01 0.02 0.02
0.01 0.01 0.01 0.02 0.04 0.05 0.05 0.05 0.04 0.04 0.04 0.05 0.06 0.06 0.06 0.07 0.04 0.04 0.04 0.04 0.04 0.03 0.02 0.02 0.02 0.02 0.01 0.01 0.01 0.01 0.01 0.02 0.02 0.01 0.01 0.01 0.01 0.02
0.01 0.01 0.01 0.01 0.02 0.03 0.03 0.03 0.02 0.02 0.03 0.05 0.07 0.07 0.06 0.07 0.04 0.03 0.03 0.03 0.03 0.04 0.04 0.04 0.03 0.02 0.02 0.02 0.02 0.01 0.01 0.01 0.01 0.01 0.01 0.02 0.01 0.01
0.01 0.01 0.02 0.02 0.02 0.02 0.02 0.01 0.01 0.01 0.01 0.02 0.04 0.04 0.04 0.06 0.05 0.03 0.04 0.04 0.04 0.04 0.04 0.04 0.03 0.03 0.02 0.02 0.02 0.02 0.02 0.02 0.02 0.02 0.02 0.03 0.03 0.02
0.01 0.02 0.02 0.02 0.01 0.01 0.01 0.01 0.01 0.01 0.01 0.01 0.02 0.03 0.04 0.05 0.06 0.05 0.05 0.05 0.05 0.06 0.05 0.04 0.03 0.03 0.03 0.03 0.02 0.02 0.02 0.03 0.03 0.02 0.02 0.03 0.03 0.03
0.01 0.01 0.01 0.01 0.01 0.01 0.01 0.02 0.01 0.01 0.02 0.02 0.02 0.03 0.04 0.04 0.06 0.07 0.06 0.06 0.05 0.05 0.05 0.04 0.04 0.03 0.03 0.03 0.02 0.02 0.02 0.02 0.02 0.02 0.02 0.03 0.03 0.04
0.00 0.01 0.01 0.02 0.02 0.02 0.01 0.01 0.02 0.02 0.02 0.02 0.02 0.03 0.03 0.04 0.06 0.07 0.05 0.06 0.06 0.05 0.04 0.03 0.04 0.03 0.03 0.03 0.02 0.02 0.02 0.02 0.02 0.02 0.02 0.02 0.03 0.03
0.01 0.01 0.02 0.01 0.01 0.02 0.02 0.02 0.02 0.02 0.02 0.02 0.03 0.03 0.03 0.05 0.07 0.07 0.06 0.06 0.07 0.06 0.05 0.04 0.04 0.04 0.03 0.03 0.03 0.02 0.02 0.02 0.02 0.02 0.02 0.02 0.03 0.03
0.02 0.02 0.02 0.02 0.01 0.01 0.01 0.02 0.02 0.02 0.03 0.03 0.04 0.05 0.05 0.06 0.06 0.06 0.05 0.05 0.05 0.04 0.04 0.04 0.04 0.04 0.04 0.03 0.03 0.03 0.03 0.03 0.02 0.02 0.02 0.03 0.03 0.03
0.02 0.01 0.01 0.02 0.02 0.01 0.02 0.02 0.02 0.03 0.03 0.04 0.04 0.05 0.05 0.04 0.04 0.04 0.03 0.03 0.03 0.03 0.03 0.03 0.04 0.04 0.04 0.03 0.03 0.03 0.03 0.03 0.02 0.02 0.02 0.02 0.03 0.03
0.01 0.01 0.01 0.01 0.02 0.02 0.02 0.02 0.02 0.02 0.02 0.02 0.03 0.03 0.03 0.02 0.02 0.01 0.01 0.01 0.01 0.01 0.01 0.01 0.01 0.01 0.02 0.02 0.02 0.03 0.03 0.03 0.03 0.02 0.02 0.02 0.02 0.02
0.00 0.00 0.01 0.01 0.02 0.02 0.02 0.02 0.01 0.01 0.01 0.01 0.01 0.01 0.01 0.01 0.00 0.00 0.01 0.01 0.01 0.01 0.01 0.00 0.01 0.01 0.01 0.01 0.01 0.02 0.03 0.03 0.03 0.03 0.03 0.02 0.02 0.02
0.00 0.01 0.01 0.01 0.02 0.02 0.02 0.02 0.01 0.01 0.01 0.00 0.00 0.01 0.01 0.01 0.01 0.00 0.00 0.01 0.01 0.01 0.00 0.00 0.01 0.01 0.01 0.02 0.01 0.02 0.04 0.04 0.04 0.05 0.04 0.03 0.03 0.03
0.01 0.01 0.01 0.02 0.02 0.02 0.02 0.01 0.01 0.01 0.01 0.01 0.00 0.00 0.00 0.01 0.00 0.00 0.00 0.01 0.01 0.01 0.00 0.00 0.00 0.01 0.01 0.01 0.02 0.02 0.03 0.04 0.05 0.06 0.05 0.04 0.03 0.03
0.02 0.01 0.02 0.02 0.01 0.01 0.02 0.01 0.01 0.00 0.00 0.00 0.00 0.00 0.00 0.00 0.00 0.00 0.00 0.00 0.01 0.01 0.01 0.00 0.00 0.01 0.01 0.01 0.02 0.02 0.02 0.03 0.04 0.04 0.05 0.06 0.06 0.04
0.03 0.02 0.02 0.02 0.01 0.01 0.01 0.01 0.01 0.01 0.01 0.00 0.01 0.01 0.01 0.01 0.00 0.00 0.00 0.01 0.01 0.01 0.01 0.01 0.01 0.01 0.01 0.01 0.01 0.02 0.02 0.02 0.03 0.03 0.04 0.06 0.07 0.06
0.03 0.03 0.03 0.02 0.02 0.01 0.01 0.01 0.01 0.01 0.01 0.01 0.01 0.01 0.01 0.01 0.01 0.01 0.01 0.02 0.02 0.02 0.01 0.01 0.01 0.01 0.01 0.01 0.01 0.01 0.02 0.02 0.02 0.02 0.03 0.04 0.05 0.05
MSLP
1019.07 1019.33 1019.59 1019.83 1020.03 1020.16 1020.22 1020.21 1020.12 1019.99 1019.81 1019.62 1019.42 1019.21 1019.01 1018.80 1018.60 1018.41 1018.22 1018.05 1017.89 1017.75 1017.62 1017.49 1017.34 1017.16 1016.94 1016.67 1016.36 1016.04 1015.74 1015.50 1015.36 1015.36 1015.51 1015.85 1016.34 1016.97
1018.77 1019.04 1019.30 1019.53 1019.72 1019.85 1019.92 1019.92 1019.87 1019.78 1019.66 1019.51 1019.36 1019.19 1019.00 1018.81 1018.60 1018.38 1018.17 1017.97 1017.80 1017.66 1017.54 1017.45 1017.35 1017.23 1017.08 1016.88 1016.63 1016.34 1016.05 1015.78 1015.59 1015.50 1015.54 1015.75 1016.10 1016.60
1018.44 1018.72 1018.98 1019.21 1019.40 1019.53 1019.61 1019.65 1019.64 1019.60 1019.54 1019.46 1019.37 1019.25 1019.10 1018.92 1018.71 1018.48 1018.24 1018.01 1017.81 1017.65 1017.52 1017.44 1017.37 1017.30 1017.21 1017.08 1016.89 1016.66 1016.40 1016.15 1015.93 1015.78 1015.75 1015.84 1016.07 1016.43
1018.12 1018.40 1018.66 1018.90 1019.09 1019.24 1019.34 1019.40 1019.44 1019.47 1019.47 1019.47 1019.44 1019.38 1019.28 1019.14 1018.94 1018.70 1018.44 1018.18 1017.94 1017.74 1017.59 1017.49 1017.43 1017.39 1017.34 1017.27 1017.15 1016.98 1016.78 1016.56 1016.35 1016.18 1016.09 1016.10 1016.23 1016.47
1017.80 1018.09 1018.37 1018.61 1018.81 1018.97 1019.10 1019.20 1019.28 1019.35 1019.43 1019.49 1019.53 1019.54 1019.50 1019.39 1019.22 1018.99 1018.72 1018.43 1018.16 1017.92 1017.74 1017.61 1017.53 1017.50 1017.48 1017.44 1017.38 1017.28 1017.14 1016.97 1016.79 1016.64 1016.53 1016.50 1016.55 1016.70
1017.48 1017.78 1018.07 1018.32 1018.54 1018.72 1018.86 1018.99 1019.11 1019.23 1019.35 1019.47 1019.58 1019.65 1019.66 1019.60 1019.47 1019.27 1019.01 1018.72 1018.42 1018.15 1017.93 1017.78 1017.68 1017.63 1017.62 1017.61 1017.59 1017.55 1017.47 1017.36 1017.24 1017.11 1017.02 1016.97 1016.98 1017.07
1017.12 1017.43 1017.73 1018.00 1018.23 1018.43 1018.60 1018.75 1018.89 1019.04 1019.20 1019.36 1019.51 1019.63 1019.70 1019.70 1019.62 1019.46 1019.23 1018.96 1018.67 1018.39 1018.16 1017.98 1017.86 1017.80 1017.78 1017.78 1017.79 1017.79 1017.76 1017.71 1017.64 1017.56 1017.50 1017.45 1017.45 1017.50
1016.67 1016.99 1017.31 1017.60 1017.85 1018.07 1018.25 1018.42 1018.58 1018.75 1018.93 1019.11 1019.29 1019.45 1019.57 1019.63 1019.61 1019.51 1019.34 1019.12 1018.86 1018.61 1018.37 1018.19 1018.06 1017.99 1017.96 1017.97 1017.99 1018.01 1018.03 1018.02 1018.00 1017.96 1017.93 1017.91 1017.91 1017.95
1016.10 1016.43 1016.77 1017.08 1017.36 1017.61 1017.82 1018.00 1018.17 1018.35 1018.53 1018.73 1018.94 1019.13 1019.29 1019.41 1019.45 1019.43 1019.33 1019.18 1018.99 1018.78 1018.58 1018.41 1018.28 1018.21 1018.18 1018.18 1018.21 1018.24 1018.27 1018.29 1018.30 1018.30 1018.30 1018.30 1018.31 1018.34
1015.41 1015.76 1016.12 1016.46 1016.78 1017.05 1017.29 1017.49 1017.68 1017.87 1018.06 1018.26 1018.48 1018.70 1018.90 1019.07 1019.19 1019.24 1019.23 1019.17 1019.05 1018.91 1018.77 1018.64 1018.53 1018.47 1018.43 1018.43 1018.46 1018.49 1018.52 1018.55 1018.57 1018.58 1018.59 1018.60 1018.62 1018.66
1014.65 1015.01 1015.39 1015.77 1016.12 1016.44 1016.71 1016.94 1017.15 1017.35 1017.55 1017.77 1018.00 1018.24 1018.47 1018.69 1018.87 1019.01 1019.09 1019.11 1019.08 1019.02 1018.94 1018.86 1018.80 1018.75 1018.72 1018.72 1018.73 1018.75 1018.77 1018.79 1018.80 1018.81 1018.81 1018.82 1018.83 1018.86
1013.88 1014.25 1014.66 1015.07 1015.46 1015.81 1016.12 1016.39 1016.63 1016.85 1017.06 1017.29 1017.54 1017.80 1018.07 1018.33 1018.57 1018.77 1018.92 1019.03 1019.08 1019.10 1019.09 1019.07 1019.04 1019.02 1019.01 1019.00 1019.01 1019.01 1019.01 1019.01 1018.99 1018.98 1018.96 1018.95 1018.95 1018.97
1013.18 1013.57 1013.99 1014.42 1014.84 1015.23 1015.57 1015.87 1016.13 1016.38 1016.62 1016.87 1017.14 1017.42 1017.71 1018.00 1018.28 1018.53 1018.75 1018.92 1019.04 1019.13 1019.18 1019.21 1019.22 1019.23 1019.24 1019.24 1019.24 1019.23 1019.20 1019.17 1019.13 1019.09 1019.04 1019.00 1018.98 1018.97
1012.63 1013.01 1013.43 1013.87 1014.30 1014.70 1015.06 1015.39 1015.68 1015.95 1016.21 1016.48 1016.76 1017.06 1017.38 1017.69 1018.00 1018.28 1018.53 1018.74 1018.91 1019.04 1019.14 1019.22 1019.27 1019.31 1019.34 1019.36 1019.36 1019.34 1019.30 1019.25 1019.18 1019.10 1019.02 1018.96 1018.90 1018.87
1012.24 1012.60 1013.00 1013.42 1013.84 1014.23 1014.59 1014.92 1015.22 1015.50 1015.79 1016.07 1016.37 1016.69 1017.01 1017.33 1017.65 1017.94 1018.21 1018.44 1018.64 1018.80 1018.93 1019.04 1019.13 1019.20 1019.26 1019.29 1019.31 1019.29 1019.25 1019.19 1019.10 1019.00 1018.90 1018.81 1018.73 1018.68
1012.00 1012.33 1012.69 1013.07 1013.44 1013.80 1014.13 1014.43 1014.73 1015.01 1015.30 1015.59 1015.90 1016.22 1016.54 1016.87 1017.18 1017.47 1017.73 1017.97 1018.17 1018.35 1018.50 1018.64 1018.76 1018.86 1018.95 1019.01 1019.05 1019.06 1019.03 1018.96 1018.87 1018.77 1018.65 1018.55 1018.46 1018.40
1011.86 1012.14 1012.45 1012.76 1013.06 1013.35 1013.63 1013.90 1014.16 1014.43 1014.71 1015.00 1015.30 1015.62 1015.94 1016.25 1016.55 1016.82 1017.07 1017.30 1017.50 1017.68 1017.85 1018.00 1018.15 1018.29 1018.42 1018.52 1018.59 1018.62 1018.62 1018.57 1018.50 1018.40 1018.29 1018.18 1018.09 1018.03
1011.74 1011.98 1012.21 1012.44 1012.66 1012.87 1013.08 1013.29 1013.51 1013.75 1014.01 1014.28 1014.57 1014.88 1015.18 1015.47 1015.75 1016.01 1016.24 1016.45 1016.64 1016.82 1017.00 1017.18 1017.36 1017.54 1017.70 1017.84 1017.95 1018.03 1018.06 1018.04 1017.99 1017.91 1017.82 1017.72 1017.65 1017.60
1011.57 1011.75 1011.91 1012.07 1012.21 1012.34 1012.48 1012.63 1012.81 1013.01 1013.23 1013.49 1013.76 1014.04 1014.32 1014.59 1014.85 1015.08 1015.29 1015.48 1015.67 1015.86 1016.05 1016.25 1016.46 1016.68 1016.88 1017.07 1017.22 1017.33 1017.40 1017.42 1017.40 1017.35 1017.29 1017.22 1017.16 1017.13
1011.28 1011.42 1011.53 1011.62 1011.69 1011.77 1011.85 1011.95 1012.09 1012.25 1012.45 1012.68 1012.93 1013.19 1013.44 1013.68 1013.91 1014.12 1014.31 1014.50 1014.68 1014.88 1015.08 1015.31 1015.55 1015.80 1016.04 1016.27 1016.46 1016.61 1016.72 1016.78 1016.79 1016.77 1016.74 1016.70 1016.67 1016.67
1010.85 1010.95 1011.03 1011.08 1011.12 1011.16 1011.21 1011.29 1011.40 1011.55 1011.73 1011.93 1012.16 1012.39 1012.61 1012.83 1013.02 1013.21 1013.38 1013.56 1013.74 1013.94 1014.17 1014.42 1014.69 1014.97 1015.24 1015.50 1015.73 1015.92 1016.05 1016.14 1016.19 1016.20 1016.20 1016.19 1016.20 1016.23
1010.25 1010.35 1010.42 1010.46 1010.50 1010.54 1010.59 1010.67 1010.78 1010.93 1011.10 1011.29 1011.50 1011.70 1011.89 1012.08 1012.24 1012.40 1012.55 1012.72 1012.90 1013.11 1013.35 1013.62 1013.91 1014.21 1014.52 1014.80 1015.05 1015.26 1015.42 1015.54 1015.61 1015.66 1015.69 1015.72 1015.76 1015.82
1009.52 1009.62 1009.70 1009.77 1009.83 1009.91 1009.99 1010.11 1010.25 1010.41 1010.58 1010.77 1010.96 1011.14 1011.30 1011.45 1011.58 1011.70 1011.83 1011.98 1012.16 1012.36 1012.61 1012.89 1013.20 1013.52 1013.84 1014.14 1014.41 1014.64 1014.82 1014.96 1015.05 1015.13 1015.19 1015.26 1015.34 1015.43
Thickness
5646 5646 5646 5645 5644 5644 5643 5642 5640 5638 5639 5642 5643 5645 5646 5646 5647 5647 5647 5647 5647 5646 5646 5645 5645 5644 5644 5643 5643 5644 5644 5645 5645 5645 5646 5646 5647 5649
5642 5642 5642 5641 5641 5640 5639 5638 5638 5637 5636 5637 5637 5639 5639 5641 5641 5641 5641 5641 5641 5641 5640 5640 5639 5638 5638 5638 5638 5638 5638 5638 5639 5639 5639 5640 5641 5642
5639 5639 5638 5638 5637 5636 5635 5634 5634 5633 5632 5633 5632 5633 5633 5634 5634 5634 5634 5634 5634 5635 5635 5634 5634 5633 5633 5633 5632 5632 5632 5632 5632 5632 5633 5634 5635 5636
5637 5635 5634 5634 5632 5632 5631 5630 5629 5629 5629 5628 5628 5627 5628 5628 5628 5628 5628 5628 5628 5629 5629 5629 5628 5628 5627 5627 5627 5626 5626 5626 5626 5626 5627 5627 5629 5630
5634 5633 5631 5630 5628 5628 5627 5626 5626 5625 5624 5623 5623 5622 5622 5622 5621 5621 5622 5621 5622 5622 5622 5622 5622 5621 5621 5621 5621 5620 5620 5621 5620 5620 5619 5620 5621 5622
5632 5630 5629 5627 5626 5625 5624 5622 5621 5620 5619 5617 5617 5616 5615 5615 5614 5614 5614 5614 5615 5616 5616 5616 5615 5615 5615 5615 5615 5614 5614 5614 5613 5613 5613 5613 5613 5615
5629 5627 5626 5626 5624 5623 5621 5619 5617 5615 5614 5612 5611 5610 5609 5608 5608 5608 5607 5607 5607 5608 5609 5609 5609 5609 5609 5608 5608 5608 5608 5608 5607 5607 5606 5606 5607 5608
5626 5625 5624 5623 5621 5620 5618 5617 5615 5612 5610 5608 5607 5605 5605 5604 5602 5601 5600 5600 5601 5601 5601 5603 5602 5603 5602 5602 5603 5602 5602 5601 5601 5601 5600 5600 5600 5601
5622 5621 5621 5620 5617 5616 5614 5613 5611 5609 5607 5605 5603 5602 5600 5600 5597 5596 5594 5594 5594 5595 5593 5596 5595 5596 5597 5596 5596 5596 5596 5596 5595 5594 5594 5594 5594 5594
5619 5618 5615 5614 5614 5612 5610 5608 5607 5605 5603 5601 5600 5599 5598 5596 5593 5592 5590 5588 5588 5587 5586 5587 5589 5590 5591 5590 5590 5590 5590 5590 5589 5588 5587 5587 5588 5588
5616 5614 5612 5610 5609 5607 5605 5603 5601 5600 5598 5597 5596 5594 5592 5590 5588 5586 5584 5583 5584 5584 5580 5581 5583 5583 5584 5584 5584 5584 5583 5583 5583 5582 5582 5581 5581 5581
5612 5610 5608 5607 5605 5603 5600 5598 5597 5595 5594 5592 5590 5588 5586 5584 5582 5581 5580 5578 5578 5579 5577 5575 5577 5576 5578 5579 5578 5578 5577 5576 5576 5575 5575 5575 5574 5573
5608 5606 5604 5602 5600 5598 5596 5594 5592 5590 5588 5585 5583 5582 5580 5578 5577 5575 5574 5573 5573 5573 5572 5569 5570 5569 5569 5571 5571 5570 5569 5569 5569 5568 5568 5568 5568 5567
5604 5602 5600 5597 5595 5593 5590 5588 5586 5584 5582 5580 5578 5576 5574 5573 5571 5570 5568 5567 5567 5567 5566 5564 5564 5562 5562 5562 5563 5563 5562 5561 5561 5561 5561 5561 5560 5560
5600 5598 5595 5593 5591 5589 5586 5584 5581 5579 5576 5574 5572 5570 5568 5566 5565 5563 5563 5561 5560 5560 5559 5558 5556 5555 5554 5554 5555 5555 5554 5554 5553 5553 5553 5553 5553 5554
5595 5593 5591 5588 5587 5584 5582 5579 5577 5574 5571 5569 5567 5565 5562 5561 5559 5557 5556 5555 5555 5555 5553 5551 5550 5549 5548 5547 5547 5547 5547 5547 5547 5546 5545 5546 5546 5547
5590 5588 5586 5585 5583 5580 5577 5574 5572 5569 5566 5564 5561 5559 5557 5556 5554 5552 5550 5549 5548 5549 5548 5546 5543 5542 5541 5540 5541 5541 5540 5540 5540 5539 5538 5540 5541 5541
5585 5584 5582 5580 5579 5576 5574 5571 5568 5565 5562 5559 5557 5554 5552 5551 5549 5547 5545 5544 5543 5542 5541 5539 5537 5536 5535 5535 5533 5534 5534 5534 5533 5532 5532 5534 5536 5536
5582 5581 5579 5578 5575 5573 5570 5567 5565 5562 5558 5555 5553 5550 5548 5546 5544 5542 5540 5538 5537 5536 5534 5532 5530 5529 5529 5531 5531 5526 5526 5527 5527 5526 5527 5527 5530 5531
5578 5577 5576 5574 5572 5570 5567 5564 5561 5558 5555 5552 5549 5547 5544 5541 5539 5537 5535 5533 5531 5530 5528 5526 5524 5522 5521 5522 5523 5522 5519 5520 5520 5521 5522 5521 5522 5523
5576 5574 5572 5571 5569 5567 5564 5560 5557 5554 5552 5549 5546 5543 5540 5537 5535 5533 5530 5527 5525 5524 5523 5522 5519 5516 5514 5512 5514 5516 5516 5514 5513 5514 5515 5515 5516 5518
5573 5571 5570 5568 5566 5563 5560 5557 5554 5551 5548 5546 5543 5540 5536 5533 5530 5528 5526 5523 5521 5520 5518 5517 5514 5511 5509 5508 5509 5510 5509 5508 5506 5505 5505 5506 5508 5511
5569 5568 5567 5565 5563 5560 5557 5555 5551 5549 5545 5542 5540 5537 5533 5530 5527 5524 5522 5520 5517 5516 5514 5512 5509 5506 5504 5503 5503 5503 5503 5502 5500 5500 5500 5500 5499 5501